Weather History for EGGD - August, 2012

Change the Weather History Date:

Tuesday, August 14, 2012

  Actual Average Record
Temperature  
Mean Temperature 64 °F -  
Max Temperature 71 °F 63 °F 71 °F (2001)
Min Temperature 57 °F 52 °F 50 °F (2008)
Degree Days  
Heating Degree Days 1    
Growing Degree Days 14 (Base 50)    
Moisture  
Dew Point 58 °F    
Average Humidity 84    
Maximum Humidity 100    
Minimum Humidity 64    
Precipitation  
Precipitation 0.00 in - - ()
Sea Level Pressure  
Sea Level Pressure 29.83 in    
Wind  
Wind Speed 7 mph ()    
Max Wind Speed 13 mph    
Max Gust Speed -    
Visibility 6.2 miles    
Events      
Averages and records for this station are not official NWS values.
T = Trace of Precipitation, MM = Missing Value Source: Averaged Metar Reports

Daily Weather History Graph

Daily Weather History Graph

Search for Another Location

Airport or City:

Trip Planner

Search our weather history database for the weather conditions in past years. The results will help you decide how hot, cold, wet, or windy it might be!

Date:

Astronomy

Aug. 14, 2012 Rise Set
Actual Time 5:55 AM BST 8:34 PM BST
Civil Twilight 5:18 AM BST 9:11 PM BST
Nautical Twilight 4:29 AM BST 9:59 PM BST
Astronomical Twilight 3:31 AM BST 10:56 PM BST
Moon 2:27 AM BST (8/14) 6:28 PM BST (8/14)
Length of Visible Light 15h 53m
Length of Day
14h 38m
Waning Crescent, 11% of the Moon is Illuminated
Aug 14
Waning Crescent
Aug 17
New
Aug 24
First Quarter
Aug 31
Full
Sep 8
Last Quarter

Hourly Weather History & Observations

Time (BST) Temp. Dew Point Humidity Pressure Visibility Wind Dir Wind Speed Gust Speed Precip Events Conditions
12:20 AM 59.0 °F 57.2 °F 94% 29.83 in 6.2 mi SSE 6.9 mph - N/A   Scattered Clouds
12:50 AM 57.2 °F 57.2 °F 100% 29.83 in 6.2 mi SSE 8.1 mph - N/A   Partly Cloudy
1:20 AM 59.0 °F 57.2 °F 94% 29.83 in - SSE 6.9 mph - N/A   Clear
1:50 AM 57.2 °F 57.2 °F 100% 29.80 in - SSE 5.8 mph - N/A   Clear
2:20 AM 59.0 °F 57.2 °F 94% 29.80 in 6.2 mi South 6.9 mph - N/A   Mostly Cloudy
2:50 AM 59.0 °F 57.2 °F 94% 29.80 in 6.2 mi South 6.9 mph - N/A   Mostly Cloudy
3:20 AM 59.0 °F 57.2 °F 94% 29.80 in 6.2 mi South 5.8 mph - N/A   Mostly Cloudy
3:50 AM 59.0 °F 57.2 °F 94% 29.80 in 6.2 mi South 4.6 mph - N/A   Mostly Cloudy
4:20 AM 59.0 °F 57.2 °F 94% 29.80 in 6.2 mi South 5.8 mph - N/A   Mostly Cloudy
4:50 AM 59.0 °F 57.2 °F 94% 29.80 in 6.2 mi South 5.8 mph - N/A   Mostly Cloudy
5:20 AM 57.2 °F 57.2 °F 100% 29.80 in 6.2 mi SSE 4.6 mph - N/A   Partly Cloudy
5:50 AM 57.2 °F 57.2 °F 100% 29.80 in 6.2 mi SSE 4.6 mph - N/A   Partly Cloudy
6:50 AM 59.0 °F 57.2 °F 94% 29.80 in 6.2 mi ESE 5.8 mph - N/A   Mostly Cloudy
7:20 AM 59.0 °F 57.2 °F 94% 29.83 in 6.2 mi Variable 3.5 mph - N/A   Mostly Cloudy
7:50 AM 59.0 °F 57.2 °F 94% 29.83 in 6.2 mi ESE 5.8 mph - N/A   Mostly Cloudy
8:20 AM 60.8 °F 59.0 °F 94% 29.83 in 6.2 mi SE 6.9 mph - N/A   Mostly Cloudy
8:50 AM 60.8 °F 59.0 °F 94% 29.83 in 6.2 mi SE 6.9 mph - N/A   Mostly Cloudy
9:20 AM 60.8 °F 59.0 °F 94% 29.83 in 6.2 mi SSE 6.9 mph - N/A   Mostly Cloudy
9:50 AM 62.6 °F 59.0 °F 88% 29.83 in 6.2 mi SSE 8.1 mph - N/A   Mostly Cloudy
10:20 AM 62.6 °F 59.0 °F 88% 29.83 in 6.2 mi South 8.1 mph - N/A   Mostly Cloudy
10:50 AM 64.4 °F 59.0 °F 83% 29.86 in 6.2 mi South 8.1 mph - N/A   Mostly Cloudy
11:20 AM 66.2 °F 59.0 °F 78% 29.86 in 6.2 mi SSE 9.2 mph - N/A   Scattered Clouds
11:50 AM 66.2 °F 59.0 °F 78% 29.86 in 6.2 mi South 8.1 mph - N/A   Scattered Clouds
12:20 PM 68.0 °F 59.0 °F 73% 29.86 in 6.2 mi SSE 11.5 mph - N/A   Scattered Clouds
12:50 PM 68.0 °F 59.0 °F 73% 29.83 in 6.2 mi SSE 11.5 mph - N/A   Scattered Clouds
1:20 PM 69.8 °F 59.0 °F 68% 29.83 in 6.2 mi South 10.4 mph - N/A   Scattered Clouds
1:50 PM 69.8 °F 59.0 °F 68% 29.83 in 6.2 mi SSE 11.5 mph - N/A   Scattered Clouds
2:20 PM 69.8 °F 57.2 °F 64% 29.83 in 6.2 mi South 11.5 mph - N/A   Scattered Clouds
2:50 PM 69.8 °F 57.2 °F 64% 29.83 in 6.2 mi SSE 11.5 mph - N/A   Partly Cloudy
3:20 PM 69.8 °F 57.2 °F 64% 29.83 in 6.2 mi SSE 12.7 mph - N/A   Partly Cloudy
3:50 PM 69.8 °F 59.0 °F 68% 29.83 in 6.2 mi SSE 12.7 mph - N/A   Partly Cloudy
4:20 PM 71.6 °F 59.0 °F 64% 29.83 in 6.2 mi SSE 12.7 mph - N/A   Partly Cloudy
4:50 PM 69.8 °F 59.0 °F 68% 29.83 in 6.2 mi SSE 12.7 mph - N/A   Partly Cloudy
5:20 PM 69.8 °F 59.0 °F 68% 29.83 in 6.2 mi SE 12.7 mph - N/A   Partly Cloudy
5:50 PM 68.0 °F 59.0 °F 73% 29.83 in 6.2 mi SE 12.7 mph - N/A   Partly Cloudy
6:20 PM 68.0 °F 59.0 °F 73% 29.83 in 6.2 mi SE 10.4 mph - N/A   Partly Cloudy
6:50 PM 68.0 °F 59.0 °F 73% 29.83 in 6.2 mi SE 8.1 mph - N/A   Partly Cloudy
7:20 PM 66.2 °F 59.0 °F 78% 29.83 in - SE 8.1 mph - N/A   Clear
7:50 PM 66.2 °F 59.0 °F 78% 29.83 in - ESE 8.1 mph - N/A   Clear
8:20 PM 64.4 °F 59.0 °F 83% 29.83 in - ESE 8.1 mph - N/A   Clear
8:50 PM 64.4 °F 59.0 °F 83% 29.83 in - ESE 6.9 mph - N/A   Clear
9:20 PM 62.6 °F 59.0 °F 88% 29.86 in - ESE 8.1 mph - N/A   Clear
9:50 PM 62.6 °F 59.0 °F 88% 29.86 in 6.2 mi ESE 6.9 mph - N/A   Partly Cloudy
10:20 PM 62.6 °F 59.0 °F 88% 29.83 in - East 11.5 mph - N/A   Clear
10:50 PM 60.8 °F 59.0 °F 94% 29.83 in 6.2 mi East 11.5 mph - N/A   Scattered Clouds
11:20 PM 60.8 °F 59.0 °F 94% 29.80 in - East 11.5 mph - N/A   Clear
11:50 PM 60.8 °F 59.0 °F 94% 29.80 in 6.2 mi East 11.5 mph - N/A   Partly Cloudy